SFR440 FALE-FAEL

Flight info

Callsign SFR440
Flight time 0h 55m
Altitude 34000
Route OKTAN UQ29 ETOVU DCT ELV
Aircraft B738/M-SABDE2E3FGHIRWXY/LB2

Departure

Time 2026-05-07 15:00
Airport King Shaka International Airport (FALE)

Arrival

Time 2026-05-07 15:55
Airport King Phalo Airport (FAEL)
Time Latitude Longitude Altitude Speed Heading
2026-05-07 14:16 -29.62031 31.10523 296 ft 0 kts 308°
2026-05-07 14:40 -29.62036 31.10531 296 ft 2 kts 306°
2026-05-07 14:40 -29.62046 31.10546 299 ft 2 kts 307°
2026-05-07 14:40 -29.62056 31.10561 299 ft 2 kts 302°
2026-05-07 14:41 -29.62062 31.10579 296 ft 2 kts 235°
2026-05-07 14:41 -29.62049 31.10591 301 ft 2 kts 218°
2026-05-07 14:41 -29.62045 31.10596 297 ft 0 kts 218°
2026-05-07 14:54 -29.62057 31.10585 299 ft 9 kts 217°
2026-05-07 14:54 -29.62113 31.10536 299 ft 11 kts 217°
2026-05-07 14:54 -29.62152 31.10502 296 ft 11 kts 217°
2026-05-07 14:54 -29.62211 31.10451 296 ft 12 kts 217°
2026-05-07 14:55 -29.62284 31.10459 296 ft 13 kts 128°
2026-05-07 14:55 -29.62335 31.10539 297 ft 12 kts 126°
2026-05-07 14:55 -29.62383 31.10613 297 ft 10 kts 128°
2026-05-07 14:55 -29.62407 31.10648 297 ft 0 kts 128°
2026-05-07 14:58 -29.62430 31.10682 298 ft 15 kts 128°
2026-05-07 14:58 -29.62491 31.10761 295 ft 7 kts 131°
2026-05-07 14:58 -29.62484 31.10798 297 ft 5 kts 50°
2026-05-07 14:58 -29.62464 31.10817 294 ft 3 kts 38°
2026-05-07 14:59 -29.62458 31.10823 295 ft 0 kts 38°
2026-05-07 14:59 -29.62318 31.10944 300 ft 66 kts 37°
2026-05-07 14:59 -29.61733 31.11452 297 ft 142 kts 38°
2026-05-07 15:00 -29.60849 31.12213 708 ft 171 kts 39°
2026-05-07 15:00 -29.59840 31.13098 1436 ft 187 kts 40°
2026-05-07 15:00 -29.58785 31.14028 2256 ft 199 kts 39°
2026-05-07 15:00 -29.57692 31.15088 2914 ft 213 kts 47°
2026-05-07 15:01 -29.56763 31.16489 3439 ft 231 kts 60°
2026-05-07 15:01 -29.56090 31.18271 3724 ft 263 kts 80°
2026-05-07 15:01 -29.56335 31.20393 4439 ft 272 kts 120°
2026-05-07 15:01 -29.57605 31.21887 5589 ft 266 kts 153°
2026-05-07 15:02 -29.59054 31.22376 6290 ft 269 kts 181°
2026-05-07 15:02 -29.60838 31.21841 7192 ft 269 kts 213°
2026-05-07 15:02 -29.61811 31.21049 7809 ft 270 kts 219°
2026-05-07 15:02 -29.63290 31.19673 8713 ft 276 kts 221°
2026-05-07 15:03 -29.64773 31.18245 9652 ft 280 kts 221°
2026-05-07 15:03 -29.66275 31.16805 10357 ft 292 kts 221°
2026-05-07 15:03 -29.67876 31.15285 11005 ft 304 kts 221°
2026-05-07 15:03 -29.69531 31.13733 11823 ft 309 kts 221°
2026-05-07 15:04 -29.71215 31.12168 12733 ft 313 kts 222°
2026-05-07 15:04 -29.72936 31.10580 13613 ft 318 kts 222°
2026-05-07 15:04 -29.74676 31.08980 14400 ft 321 kts 222°
2026-05-07 15:04 -29.76423 31.07378 15256 ft 322 kts 223°
2026-05-07 15:05 -29.78189 31.05762 16120 ft 324 kts 223°
2026-05-07 15:05 -29.79963 31.04138 16932 ft 327 kts 223°
2026-05-07 15:05 -29.81746 31.02507 17744 ft 330 kts 223°
2026-05-07 15:05 -29.83553 31.00854 18493 ft 332 kts 224°
2026-05-07 15:06 -29.85355 30.99204 19127 ft 337 kts 224°
2026-05-07 15:06 -29.87236 30.97480 19760 ft 343 kts 224°
2026-05-07 15:06 -29.89089 30.95782 20429 ft 347 kts 224°
2026-05-07 15:06 -29.90991 30.94038 21090 ft 350 kts 224°
2026-05-07 15:07 -29.92905 30.92283 21715 ft 355 kts 224°
2026-05-07 15:07 -29.94853 30.90496 22325 ft 359 kts 225°
2026-05-07 15:07 -29.96816 30.88695 22938 ft 364 kts 225°
2026-05-07 15:07 -29.98815 30.86859 23540 ft 368 kts 225°
2026-05-07 15:08 -30.00826 30.85008 24062 ft 370 kts 225°
2026-05-07 15:08 -30.02779 30.83077 24608 ft 371 kts 227°
2026-05-07 15:08 -30.04068 30.81775 24972 ft 373 kts 227°
2026-05-07 15:08 -30.05364 30.80485 25331 ft 375 kts 226°
2026-05-07 15:09 -30.06708 30.79180 25676 ft 377 kts 226°
2026-05-07 15:09 -30.08747 30.77254 26174 ft 381 kts 225°
2026-05-07 15:09 -30.10831 30.75337 26667 ft 384 kts 224°
2026-05-07 15:09 -30.12938 30.73429 27181 ft 386 kts 224°
2026-05-07 15:10 -30.15068 30.71515 27687 ft 389 kts 224°
2026-05-07 15:10 -30.17226 30.69580 28162 ft 392 kts 224°
2026-05-07 15:10 -30.19391 30.67640 28621 ft 395 kts 224°
2026-05-07 15:10 -30.21547 30.65706 29106 ft 398 kts 224°
2026-05-07 15:11 -30.23761 30.63718 29572 ft 400 kts 224°
2026-05-07 15:11 -30.25942 30.61758 29988 ft 402 kts 224°
2026-05-07 15:11 -30.28156 30.59767 30370 ft 404 kts 224°
2026-05-07 15:11 -30.30383 30.57780 30835 ft 404 kts 223°
2026-05-07 15:12 -30.32668 30.55883 31335 ft 404 kts 221°
2026-05-07 15:12 -30.34986 30.54042 31776 ft 405 kts 221°
2026-05-07 15:12 -30.39640 30.50389 31829 ft 403 kts 221°
2026-05-07 15:13 -30.44283 30.46710 31830 ft 405 kts 221°
2026-05-07 15:13 -30.48936 30.42995 31838 ft 407 kts 221°
2026-05-07 15:14 -30.53598 30.39260 31837 ft 407 kts 221°
2026-05-07 15:14 -30.58210 30.35562 31829 ft 405 kts 221°
2026-05-07 15:15 -30.62833 30.31850 31837 ft 403 kts 221°
2026-05-07 15:15 -30.67436 30.28149 31844 ft 401 kts 220°
2026-05-07 15:16 -30.71917 30.24390 31828 ft 395 kts 227°
2026-05-07 15:16 -30.75903 30.20031 31861 ft 395 kts 229°
2026-05-07 15:17 -30.79954 30.15490 31867 ft 412 kts 229°
2026-05-07 15:17 -30.84163 30.10805 31856 ft 420 kts 228°
2026-05-07 15:18 -30.88408 30.06112 31857 ft 420 kts 228°
2026-05-07 15:18 -30.92627 30.01448 31859 ft 417 kts 228°
2026-05-07 15:19 -30.96820 29.96806 31864 ft 413 kts 228°
2026-05-07 15:19 -31.00942 29.92233 31867 ft 411 kts 228°
2026-05-07 15:20 -31.05079 29.87638 31869 ft 405 kts 228°
2026-05-07 15:20 -31.09182 29.83072 31888 ft 410 kts 228°
2026-05-07 15:21 -31.13328 29.78450 31889 ft 414 kts 228°
2026-05-07 15:21 -31.17494 29.73803 31892 ft 418 kts 228°
2026-05-07 15:22 -31.21713 29.69093 31894 ft 420 kts 228°
2026-05-07 15:22 -31.25945 29.64363 31886 ft 421 kts 228°
2026-05-07 15:23 -31.30186 29.59616 31895 ft 420 kts 228°
2026-05-07 15:23 -31.34373 29.54923 31898 ft 419 kts 228°
2026-05-07 15:24 -31.38578 29.50204 31896 ft 417 kts 228°
2026-05-07 15:24 -31.42774 29.45487 31884 ft 416 kts 228°
2026-05-07 15:25 -31.46909 29.40832 31894 ft 415 kts 228°
2026-05-07 15:25 -31.51065 29.36151 31888 ft 413 kts 228°
2026-05-07 15:26 -31.55205 29.31483 31895 ft 412 kts 228°
2026-05-07 15:26 -31.59342 29.26811 31901 ft 412 kts 228°
2026-05-07 15:27 -31.61416 29.24465 31618 ft 415 kts 228°
2026-05-07 15:27 -31.63484 29.22127 31266 ft 408 kts 228°
2026-05-07 15:27 -31.65500 29.19850 30839 ft 397 kts 228°
2026-05-07 15:27 -31.67446 29.17650 30413 ft 388 kts 228°
2026-05-07 15:28 -31.69369 29.15474 30000 ft 379 kts 228°
2026-05-07 15:28 -31.71242 29.13351 29510 ft 371 kts 228°
2026-05-07 15:28 -31.73088 29.11256 29075 ft 362 kts 228°
2026-05-07 15:28 -31.74878 29.09223 28667 ft 355 kts 228°
2026-05-07 15:29 -31.76639 29.07222 28247 ft 348 kts 228°
2026-05-07 15:29 -31.78365 29.05259 27832 ft 346 kts 229°
2026-05-07 15:29 -31.80113 29.03264 27450 ft 357 kts 228°
2026-05-07 15:29 -31.81939 29.01174 27024 ft 373 kts 228°
2026-05-07 15:30 -31.83803 28.99048 26558 ft 369 kts 228°
2026-05-07 15:30 -31.85607 28.96997 26114 ft 361 kts 228°
2026-05-07 15:30 -31.87389 28.94971 25703 ft 353 kts 228°
2026-05-07 15:30 -31.89154 28.92963 25283 ft 345 kts 228°
2026-05-07 15:31 -31.90865 28.91013 24879 ft 340 kts 228°
2026-05-07 15:31 -31.92531 28.89111 24491 ft 334 kts 228°
2026-05-07 15:31 -31.94209 28.87193 24106 ft 333 kts 228°
2026-05-07 15:31 -31.95894 28.85263 23731 ft 343 kts 228°
2026-05-07 15:32 -31.97614 28.83287 23261 ft 354 kts 228°
2026-05-07 15:32 -31.99364 28.81283 22788 ft 347 kts 228°
2026-05-07 15:32 -32.01083 28.79319 22359 ft 338 kts 228°
2026-05-07 15:32 -32.02749 28.77415 21966 ft 330 kts 228°
2026-05-07 15:33 -32.04373 28.75556 21592 ft 322 kts 228°
2026-05-07 15:33 -32.05950 28.73748 21207 ft 317 kts 228°
2026-05-07 15:33 -32.07522 28.71944 20835 ft 313 kts 228°
2026-05-07 15:33 -32.09086 28.70147 20451 ft 316 kts 227°
2026-05-07 15:34 -32.10695 28.68294 20092 ft 329 kts 227°
2026-05-07 15:34 -32.12348 28.66390 19690 ft 331 kts 227°
2026-05-07 15:34 -32.13974 28.64522 19298 ft 323 kts 227°
2026-05-07 15:34 -32.15547 28.62715 18922 ft 315 kts 227°
2026-05-07 15:35 -32.17101 28.60930 18547 ft 308 kts 227°
2026-05-07 15:35 -32.18624 28.59176 18188 ft 303 kts 227°
2026-05-07 15:35 -32.20116 28.57456 17776 ft 300 kts 227°
2026-05-07 15:35 -32.21603 28.55742 17408 ft 296 kts 227°
2026-05-07 15:36 -32.23071 28.54049 17054 ft 293 kts 227°
2026-05-07 15:36 -32.24526 28.52368 16700 ft 295 kts 227°
2026-05-07 15:36 -32.26004 28.50660 16353 ft 300 kts 227°
2026-05-07 15:36 -32.27512 28.48917 15982 ft 304 kts 227°
2026-05-07 15:37 -32.29020 28.47175 15602 ft 300 kts 227°
2026-05-07 15:37 -32.30499 28.45467 15253 ft 292 kts 227°
2026-05-07 15:37 -32.31930 28.43813 14887 ft 285 kts 227°
2026-05-07 15:37 -32.33317 28.42208 14564 ft 280 kts 227°
2026-05-07 15:38 -32.34703 28.40606 14233 ft 278 kts 226°
2026-05-07 15:38 -32.36244 28.39218 13944 ft 278 kts 213°
2026-05-07 15:38 -32.37944 28.38177 13725 ft 275 kts 210°
2026-05-07 15:38 -32.39694 28.37229 13402 ft 279 kts 208°
2026-05-07 15:39 -32.41505 28.36272 13058 ft 292 kts 208°
2026-05-07 15:39 -32.43392 28.35275 12679 ft 297 kts 208°
2026-05-07 15:39 -32.45266 28.34282 12320 ft 293 kts 207°
2026-05-07 15:39 -32.47121 28.33294 11967 ft 290 kts 208°
2026-05-07 15:40 -32.48927 28.32327 11613 ft 287 kts 208°
2026-05-07 15:40 -32.50152 28.31668 11366 ft 285 kts 208°
2026-05-07 15:40 -32.52522 28.30391 10905 ft 281 kts 208°
2026-05-07 15:40 -32.54300 28.29430 10573 ft 279 kts 208°
2026-05-07 15:41 -32.56054 28.28480 10271 ft 275 kts 208°
2026-05-07 15:41 -32.57756 28.27560 10182 ft 264 kts 208°
2026-05-07 15:41 -32.58869 28.26957 10098 ft 258 kts 208°
2026-05-07 15:41 -32.60457 28.26097 9989 ft 249 kts 208°
2026-05-07 15:42 -32.62004 28.25257 9847 ft 242 kts 208°
2026-05-07 15:42 -32.63535 28.24424 9567 ft 241 kts 208°
2026-05-07 15:42 -32.65045 28.23603 9297 ft 238 kts 208°
2026-05-07 15:42 -32.66546 28.22787 9041 ft 235 kts 209°
2026-05-07 15:43 -32.68023 28.21983 8785 ft 232 kts 209°
2026-05-07 15:43 -32.69485 28.21187 8521 ft 229 kts 209°
2026-05-07 15:43 -32.70924 28.20403 8246 ft 227 kts 210°
2026-05-07 15:43 -32.72334 28.19635 8014 ft 224 kts 210°
2026-05-07 15:44 -32.73740 28.18869 7778 ft 222 kts 210°
2026-05-07 15:44 -32.75144 28.18104 7511 ft 221 kts 210°
2026-05-07 15:44 -32.76534 28.17345 7274 ft 218 kts 210°
2026-05-07 15:44 -32.77905 28.16597 7052 ft 215 kts 210°
2026-05-07 15:45 -32.79262 28.15857 6797 ft 215 kts 211°
2026-05-07 15:45 -32.80621 28.15115 6533 ft 213 kts 211°
2026-05-07 15:45 -32.81962 28.14382 6324 ft 211 kts 211°
2026-05-07 15:45 -32.83292 28.13656 6085 ft 208 kts 211°
2026-05-07 15:46 -32.85881 28.12242 5663 ft 202 kts 212°
2026-05-07 15:46 -32.87134 28.11557 5454 ft 199 kts 212°
2026-05-07 15:46 -32.88394 28.10867 5267 ft 200 kts 212°
2026-05-07 15:47 -32.89681 28.10159 5038 ft 208 kts 212°
2026-05-07 15:47 -32.91014 28.09426 4788 ft 211 kts 212°
2026-05-07 15:47 -32.92342 28.08701 4512 ft 209 kts 212°
2026-05-07 15:47 -32.93661 28.07981 4256 ft 207 kts 212°
2026-05-07 15:48 -32.94957 28.07272 4028 ft 203 kts 213°
2026-05-07 15:48 -32.96215 28.06586 3985 ft 191 kts 213°
2026-05-07 15:48 -32.97353 28.05970 3990 ft 171 kts 214°
2026-05-07 15:48 -32.98378 28.05415 3928 ft 153 kts 215°
2026-05-07 15:49 -32.99342 28.04887 3896 ft 151 kts 216°
2026-05-07 15:49 -32.99933 28.04498 3857 ft 146 kts 227°
2026-05-07 15:49 -33.00592 28.03614 3811 ft 142 kts 237°
2026-05-07 15:49 -33.01064 28.02577 3633 ft 144 kts 251°
2026-05-07 15:50 -33.01228 28.01434 3469 ft 136 kts 257°
2026-05-07 15:50 -33.01374 28.00356 3273 ft 128 kts 257°
2026-05-07 15:50 -33.01531 27.99341 3110 ft 119 kts 256°
2026-05-07 15:50 -33.01674 27.98387 2949 ft 115 kts 257°
2026-05-07 15:51 -33.01797 27.97456 2802 ft 115 kts 258°
2026-05-07 15:51 -33.01913 27.96519 2672 ft 114 kts 259°
2026-05-07 15:51 -33.02025 27.95581 2508 ft 115 kts 259°
2026-05-07 15:51 -33.02138 27.94628 2339 ft 117 kts 260°
2026-05-07 15:52 -33.02212 27.93991 2232 ft 117 kts 261°
2026-05-07 15:52 -33.02323 27.93045 2073 ft 114 kts 261°
2026-05-07 15:52 -33.02434 27.92101 1918 ft 116 kts 262°
2026-05-07 15:52 -33.02546 27.91140 1758 ft 118 kts 263°
2026-05-07 15:53 -33.02661 27.90159 1601 ft 117 kts 261°
2026-05-07 15:53 -33.02774 27.89206 1446 ft 117 kts 262°
2026-05-07 15:53 -33.02891 27.88218 1277 ft 121 kts 262°
2026-05-07 15:53 -33.03008 27.87223 1104 ft 125 kts 263°
2026-05-07 15:54 -33.03133 27.86171 928 ft 131 kts 263°
2026-05-07 15:54 -33.03256 27.85060 724 ft 137 kts 263°
2026-05-07 15:54 -33.03398 27.83929 543 ft 139 kts 263°
2026-05-07 15:54 -33.03529 27.82802 407 ft 130 kts 262°
2026-05-07 15:55 -33.03638 27.81880 421 ft 86 kts 263°
2026-05-07 15:55 -33.03690 27.81427 431 ft 24 kts 263°
2026-05-07 15:55 -33.03704 27.81326 437 ft 14 kts 259°
2026-05-07 15:55 -33.03746 27.81220 439 ft 15 kts 202°
2026-05-07 15:56 -33.03844 27.81226 430 ft 14 kts 167°
2026-05-07 15:56 -33.03882 27.81269 427 ft 7 kts 86°
2026-05-07 15:56 -33.03875 27.81340 434 ft 10 kts 79°
2026-05-07 15:56 -33.03861 27.81433 433 ft 13 kts 80°
2026-05-07 15:57 -33.03850 27.81507 426 ft 14 kts 80°
2026-05-07 15:57 -33.03845 27.81545 427 ft 15 kts 81°
2026-05-07 15:57 -33.03829 27.81672 424 ft 17 kts 83°
2026-05-07 15:57 -33.03813 27.81826 418 ft 20 kts 82°
2026-05-07 15:58 -33.03791 27.81999 416 ft 22 kts 81°
2026-05-07 15:58 -33.03765 27.82194 408 ft 25 kts 84°
2026-05-07 15:58 -33.03765 27.82239 409 ft 26 kts 93°